Renton, WA

1:36 PM PDT on May 24, 2017 (GMT -0700)
Renton Municipal

Weather History for KRNT - December, 2013

Change the Weather History Date:

Tuesday, December 31, 2013

  Actual Average Record
Temperature  
Mean Temperature 42 °F -  
Max Temperature 46 °F 44 °F 52 °F (1998)
Min Temperature 39 °F 35 °F 21 °F (2010)
Degree Days  
Heating Degree Days 22    
Moisture  
Dew Point 43 °F    
Average Humidity 95    
Maximum Humidity 100    
Minimum Humidity 82    
Precipitation  
Precipitation 0.03 in - - ()
Sea Level Pressure  
Sea Level Pressure 30.31 in    
Wind  
Wind Speed 2 mph (SE)    
Max Wind Speed 6 mph    
Max Gust Speed -    
Visibility 5 miles    
Events Fog , Rain    
Averages and records for this station are not official NWS values.
T = Trace of Precipitation, MM = Missing Value Source: NWS Daily Summary

Daily Weather History Graph

Daily Weather History Graph

Search for Another Location

Airport or City:

Trip Planner

Search our weather history database for the weather conditions in past years. The results will help you decide how hot, cold, wet, or windy it might be!

Date:

Astronomy

Dec. 31, 2013 Rise Set
Actual Time 7:56 AM PST 4:27 PM PST
Civil Twilight 7:20 AM PST 5:03 PM PST
Nautical Twilight 6:41 AM PST 5:42 PM PST
Astronomical Twilight 6:04 AM PST 6:19 PM PST
Moon 6:51 AM PST (12/31) 4:13 PM PST (12/31)
Length of Visible Light 9h 42m
Length of Day
8h 31m
Waning Crescent, 1% of the Moon is Illuminated
Dec 31
Waning Crescent
Jan 1
New
Jan 7
First Quarter
Jan 15
Full
Jan 23
Last Quarter

Hourly Weather History & Observations

Time (PST) Temp. Windchill Dew Point Humidity Pressure Visibility Wind Dir Wind Speed Gust Speed Precip Events Conditions
12:53 AM 44.1 °F 41.5 °F 41.0 °F 89% 30.22 in 10.0 mi ESE 4.6 mph - 0.01 in   Overcast
1:53 AM 44.1 °F 42.5 °F 41.0 °F 89% 30.22 in 10.0 mi SSE 3.5 mph - N/A   Overcast
2:40 AM 44.6 °F 43.1 °F 41.0 °F 87% 30.21 in 10.0 mi SE 3.5 mph - N/A   Overcast
2:53 AM 44.1 °F 42.5 °F 41.0 °F 89% 30.23 in 10.0 mi SSE 3.5 mph - N/A   Overcast
3:06 AM 44.6 °F - 41.0 °F 87% 30.22 in 10.0 mi Calm Calm - N/A   Overcast
3:53 AM 43.0 °F 41.3 °F 41.0 °F 93% 30.24 in 10.0 mi SSW 3.5 mph - N/A   Overcast
4:14 AM 44.6 °F 43.1 °F 41.0 °F 87% 30.22 in 10.0 mi ESE 3.5 mph - N/A   Overcast
4:53 AM 45.0 °F - 39.9 °F 82% 30.23 in 10.0 mi Calm Calm - N/A   Overcast
5:48 AM 44.6 °F - 41.0 °F 87% 30.22 in 10.0 mi Calm Calm - N/A   Overcast
5:53 AM 44.1 °F - 41.0 °F 89% 30.23 in 10.0 mi Calm Calm - N/A   Overcast
6:26 AM 44.6 °F 42.2 °F 41.0 °F 87% 30.23 in 10.0 mi ESE 4.6 mph - N/A   Overcast
6:53 AM 45.0 °F 42.6 °F 39.9 °F 82% 30.23 in 10.0 mi SE 4.6 mph - N/A   Overcast
7:53 AM 45.0 °F 42.6 °F 41.0 °F 86% 30.25 in 10.0 mi ESE 4.6 mph - N/A   Overcast
8:24 AM 44.6 °F 41.4 °F 42.8 °F 93% 30.24 in 6.0 mi East 5.8 mph - N/A   Overcast
8:41 AM 44.6 °F 42.2 °F 42.8 °F 93% 30.25 in 4.0 mi ESE 4.6 mph - N/A   Overcast
8:53 AM 43.0 °F - 43.0 °F 100% 30.28 in 2.0 mi Calm Calm - N/A   Overcast
9:05 AM 44.6 °F - 42.8 °F 93% 30.27 in 1.8 mi Calm Calm - N/A   Overcast
9:53 AM 44.1 °F - 44.1 °F 100% 30.30 in 1.0 mi Calm Calm - N/A   Overcast
10:53 AM 44.1 °F - 44.1 °F 100% 30.32 in 1.2 mi Calm Calm - N/A   Overcast
11:53 AM 45.0 °F - 44.1 °F 97% 30.31 in 1.0 mi Calm Calm - 0.01 in   Overcast
12:53 PM 45.0 °F - 45.0 °F 100% 30.31 in 1.8 mi Calm Calm - N/A   Overcast
1:53 PM 46.0 °F - 45.0 °F 96% 30.31 in 1.2 mi Calm Calm - 0.00 in   Overcast
2:20 PM 46.4 °F - 44.6 °F 93% 30.29 in 3.0 mi Calm Calm - 0.01 in   Overcast
2:53 PM 46.0 °F - 45.0 °F 96% 30.32 in 5.0 mi Calm Calm - 0.01 in   Overcast
3:53 PM 46.0 °F - 45.0 °F 96% 30.33 in 6.0 mi Calm Calm - N/A   Overcast
4:53 PM 45.0 °F - 45.0 °F 100% 30.35 in 4.0 mi Calm Calm - 0.00 in Rain Light Rain
5:15 PM 46.4 °F - 44.6 °F 93% 30.34 in 5.0 mi Calm Calm - 0.00 in Rain Light Rain
5:28 PM 44.6 °F - 44.6 °F 100% 30.35 in 5.0 mi Calm Calm - 0.00 in   Overcast
5:53 PM 45.0 °F - 45.0 °F 100% 30.36 in 5.0 mi Calm Calm - 0.00 in   Overcast
6:12 PM 44.6 °F - 44.6 °F 100% 30.35 in 5.0 mi Calm Calm - N/A   Overcast
6:25 PM 44.6 °F 43.1 °F 44.6 °F 100% 30.35 in 5.0 mi NW 3.5 mph - N/A   Overcast
6:53 PM 44.1 °F - 44.1 °F 100% 30.37 in 5.0 mi Calm Calm - N/A   Mostly Cloudy
7:08 PM 44.6 °F - 44.6 °F 100% 30.35 in 5.0 mi Calm Calm - N/A   Mostly Cloudy
7:15 PM 42.8 °F - 42.8 °F 100% 30.35 in 2.5 mi Calm Calm - N/A   Partly Cloudy
7:32 PM 42.8 °F - 42.8 °F 100% 30.35 in 1.5 mi Calm Calm - N/A   Partly Cloudy
7:39 PM 42.8 °F - 42.8 °F 100% 30.35 in 0.8 mi Calm Calm - N/A   Mist
7:53 PM 42.1 °F - 42.1 °F 100% 30.37 in 1.2 mi Calm Calm - N/A   Mostly Cloudy
8:03 PM 42.8 °F - 42.8 °F 100% 30.36 in 0.2 mi Calm Calm - N/A Fog Fog
8:53 PM 42.1 °F - 42.1 °F 100% 30.38 in 0.8 mi Calm Calm - N/A   Overcast
9:01 PM 42.8 °F - 42.8 °F 100% 30.37 in 1.0 mi Calm Calm - N/A   Overcast
9:12 PM 42.8 °F - 42.8 °F 100% 30.37 in 0.8 mi Calm Calm - N/A   Overcast
9:53 PM 42.1 °F - 42.1 °F 100% 30.39 in 0.2 mi Calm Calm - N/A Fog Fog
10:53 PM 42.1 °F - 42.1 °F 100% 30.40 in 0.2 mi Calm Calm - N/A Fog Fog
11:46 PM 39.2 °F - 39.2 °F 100% 30.38 in 2.0 mi Calm Calm - N/A   Overcast
11:53 PM 39.9 °F - 39.9 °F 100% 30.40 in 1.8 mi Calm Calm - N/A   Overcast